GW4516 Weather Reports


time (UTC)temp
C
wind
direction
speed
KPH
gust
KPH
rain 1hr
cm
rain 24hr
cm
rain mn
cm
humidity
%
barometer
mb
20260906174921 26 119 1.6 4.8 0.00 0.00 0.00 80 1022.9
20260906174020 27 96 1.6 3.2 0.00 0.00 0.00 78 1023.0
20260906173022 27 9 1.6 6.4 0.00 0.00 0.00 78 1022.8
20260906172022 27 108 1.6 3.2 0.00 0.00 0.00 79 1023.1
20260906171021 27 159 4.8 6.4 0.00 0.00 0.00 80 1023.2
20260906170021 26 60 1.6 4.8 0.00 0.00 0.00 81 1023.4
20260906165021 26 130 0.0 3.2 0.00 0.00 0.00 81 1023.2
20260906164022 26 144 1.6 9.7 0.00 0.00 0.00 82 1023.1
20260906163022 26 151 1.6 8.0 0.00 0.00 0.00 83 1022.9
20260906162120 25 114 1.6 3.2 0.00 0.00 0.00 83 1022.9
20260906161121 25 163 1.6 6.4 0.00 0.00 0.00 83 1022.6
20260906154122 25 139 0.0 3.2 0.00 0.00 0.00 84 1022.6
20260906153123 25 114 1.6 3.2 0.00 0.00 0.00 84 1022.6
20260906152220 25 134 1.6 3.2 0.00 0.00 0.00 85 1022.8
20260906151221 25 344 0.0 0.0 0.00 0.00 0.00 86 1022.8
20260906150222 25 15 0.0 3.2 0.00 0.00 0.00 86 1022.7
20260906145322 25 157 3.2 4.8 0.00 0.00 0.00 86 1022.9
20260906144321 25 157 6.4 11.3 0.00 0.00 0.00 88 1022.9
20260906143321 24 105 0.0 1.6 0.00 0.00 0.00 88 1023.0
20260906140422 23 242 0.0 1.6 0.00 0.00 0.00 91 1023.1
20260906134422 23 105 0.0 1.6 0.00 0.00 0.00 92 1023.2
20260906133520 22 155 3.2 8.0 0.00 0.00 0.00 93 1023.1
20260906132520 22 164 3.2 6.4 0.00 0.00 0.00 94 1023.3
20260906131521 22 157 1.6 6.4 0.00 0.00 0.00 94 1023.2
20260906130521 22 114 0.0 3.2 0.00 0.00 0.00 94 1023.1
20260906125620 22 154 1.6 6.4 0.00 0.00 0.00 95 1023.1
20260906124621 22 184 0.0 3.2 0.00 0.00 0.00 95 1023.0
20260906124521 22 130 0.0 3.2 0.00 0.00 0.00 94 1023.0
20260906123520 22 167 0.0 4.8 0.00 0.00 0.00 95 1023.0
20260906122619 22 135 0.0 0.0 0.00 0.00 0.00 95 1022.8
20260906121620 22 107 0.0 3.2 0.00 0.00 0.00 95 1022.6
20260906120719 22 162 3.2 8.0 0.00 0.00 0.00 95 1022.5
20260906115721 22 141 0.0 1.6 0.00 0.00 0.00 95 1022.4
20260906114820 22 144 0.0 1.6 0.00 0.00 0.00 95 1022.2
20260906112821 22 116 0.0 0.0 0.00 0.00 0.00 95 1022.0
20260906111921 22 157 0.0 0.0 0.00 0.00 0.00 94 1022.0
20260906110921 22 125 0.0 3.2 0.00 0.00 0.00 95 1022.1
20260906105920 22 92 0.0 1.6 0.00 0.00 0.00 95 1022.1
20260906104921 22 159 0.0 1.6 0.00 0.00 0.00 95 1022.1
20260906104019 22 180 0.0 0.0 0.00 0.00 0.00 95 1022.4
20260906103021 22 30 0.0 1.6 0.00 0.00 0.00 96 1022.4
20260906102022 21 112 0.0 0.0 0.00 0.00 0.00 96 1022.5
20260906101020 21 66 0.0 1.6 0.00 0.00 0.00 95 1022.5
20260906100020 21 127 0.0 3.2 0.00 0.00 0.00 96 1022.4
20260906095119 21 148 0.0 4.8 0.00 0.00 0.00 96 1022.3
20260906094120 21 157 0.0 0.0 0.00 0.00 0.00 95 1022.1
20260906093120 21 129 1.6 3.2 0.00 0.00 0.00 95 1022.1
20260906092121 22 97 0.0 1.6 0.00 0.00 0.00 95 1021.9
20260906090121 22 115 0.0 1.6 0.00 0.00 0.00 94 1021.7
20260906085220 22 112 0.0 1.6 0.00 0.00 0.00 95 1021.9
20260906083220 22 112 0.0 0.0 0.00 0.00 0.00 95 1021.8
20260906082320 22 155 0.0 1.6 0.00 0.00 0.00 94 1021.7
20260906081322 22 125 1.6 3.2 0.00 0.00 0.00 94 1021.8
20260906080421 22 40 0.0 1.6 0.00 0.00 0.00 95 1021.8
20260906075421 22 165 0.0 0.0 0.00 0.00 0.00 94 1021.7
20260906074419 22 90 0.0 0.0 0.00 0.00 0.00 95 1021.5
20260906073420 22 49 0.0 0.0 0.00 0.00 0.00 95 1021.6
20260906072519 22 180 0.0 0.0 0.00 0.00 0.00 94 1021.7
20260906071521 22 77 0.0 3.2 0.00 0.00 0.00 95 1021.8
20260906070520 22 112 0.0 3.2 0.00 0.00 0.00 95 1021.7
20260906065521 22 113 1.6 3.2 0.00 0.00 0.00 95 1021.7
20260906064620 22 117 0.0 0.0 0.00 0.00 0.00 95 1021.8
20260906063621 22 122 1.6 4.8 0.00 0.00 0.00 94 1021.9
20260906062619 22 135 0.0 3.2 0.00 0.00 0.00 94 1021.9
20260906061621 22 54 0.0 0.0 0.00 0.00 0.00 95 1021.9
20260906060720 22 150 0.0 3.2 0.00 0.00 0.00 95 1021.8
20260906055721 23 131 0.0 0.0 0.00 0.00 0.00 95 1021.8
20260906054720 23 117 0.0 3.2 0.00 0.00 0.00 95 1021.7
20260906053720 23 360 0.0 0.0 0.00 0.00 0.00 94 1021.7
20260906052721 23 112 0.0 0.0 0.00 0.00 0.00 95 1021.9
20260906050819 23 77 0.0 3.2 0.00 0.00 0.00 94 1021.6
20260906045827 23 37 0.0 1.6 0.00 0.00 0.00 94 1021.7
20260906045726 23 51 0.0 1.6 0.00 0.00 0.00 94 1021.6
20260906044726 23 67 0.0 0.0 0.00 0.00 0.00 93 1021.7
20260906043725 23 22 0.0 0.0 0.00 0.00 0.00 93 1021.7
20260906041729 23 112 0.0 0.0 0.00 0.00 0.00 93 1021.7
20260906035727 24 75 0.0 0.0 0.00 0.00 0.00 91 1021.6
20260906033726 24 360 0.0 0.0 0.00 0.00 0.00 91 1021.7
20260906032726 25 109 0.0 1.6 0.00 0.00 0.00 90 1021.6
20260906031825 25 67 0.0 0.0 0.00 0.00 0.00 90 1021.7
20260906030824 25 67 0.0 1.6 0.00 0.00 0.00 90 1021.5
20260906024925 25 67 0.0 1.6 0.00 0.00 0.00 90 1021.1
20260906023928 25 67 0.0 1.6 0.00 0.00 0.00 89 1021.1
20260906022926 25 50 0.0 1.6 0.00 0.00 0.00 89 1021.0
20260906021926 26 67 0.0 1.6 0.00 0.00 0.00 87 1020.8
20260906020028 26 65 0.0 0.0 0.00 0.00 0.00 87 1020.6
20260906015028 26 67 0.0 0.0 0.00 0.00 0.00 85 1020.5
20260906013225 26 67 0.0 0.0 0.00 0.00 0.00 85 1020.1
20260906012324 26 67 0.0 1.6 0.00 0.00 0.00 83 1020.0
20260906011326 26 67 0.0 0.0 0.00 0.00 0.00 84 1020.0
20260906010325 27 67 0.0 0.0 0.00 0.00 0.00 82 1019.9
20260906004325 27 67 0.0 1.6 0.00 0.00 0.00 81 1019.9
20260906002327 28 118 0.0 1.6 0.00 0.00 0.00 80 1019.9
20260906001425 28 67 0.0 1.6 0.00 0.00 0.00 79 1019.7
20260905235428 28 63 1.6 6.4 0.00 0.00 0.00 78 1019.9
20260905234526 28 112 0.0 1.6 0.00 0.00 0.00 77 1019.9
20260905231527 30 26 1.6 4.8 0.00 0.00 0.00 75 1019.8
20260905225526 30 92 1.6 3.2 0.00 0.00 0.00 75 1019.7
20260905224525 30 290 0.0 0.0 0.00 0.00 0.00 75 1019.6
20260905223526 30 129 0.0 6.4 0.00 0.00 0.00 74 1019.5
20260905222525 30 122 0.0 3.2 0.00 0.00 0.00 72 1019.2
20260905221527 30 44 0.0 3.2 0.00 0.00 0.00 72 1019.3
20260905220526 30 74 1.6 4.8 0.00 0.00 0.00 72 1019.5
20260905215525 30 124 0.0 3.2 0.00 0.00 0.00 71 1019.5
20260905214528 30 118 1.6 4.8 0.00 0.00 0.00 70 1019.6
20260905213527 30 103 0.0 1.6 0.00 0.00 0.00 69 1019.6
20260905213429 30 122 0.0 1.6 0.00 0.00 0.00 70 1019.6
20260905212526 30 67 0.0 0.0 0.00 0.00 0.00 68 1019.4
20260905211526 30 15 0.0 1.6 0.00 0.00 0.00 67 1019.2
20260905205526 30 47 1.6 9.7 0.00 0.00 0.00 67 1019.5
20260905204528 30 79 0.0 1.6 0.00 0.00 0.00 66 1020.0
20260905203525 30 88 0.0 1.6 0.00 0.00 0.00 66 1020.1
20260905195625 29 112 0.0 3.2 0.00 0.00 0.00 67 1020.3
20260905193628 29 58 0.0 1.6 0.00 0.00 0.00 68 1020.5
20260905192725 28 90 0.0 0.0 0.00 0.00 0.00 68 1020.4
20260905191825 28 120 0.0 3.2 0.00 0.00 0.00 67 1020.3
20260905190826 28 120 0.0 1.6 0.00 0.00 0.00 68 1020.2
20260905184926 27 43 0.0 3.2 0.00 0.00 0.00 70 1020.3
20260905184024 27 121 0.0 3.2 0.00 0.00 0.00 70 1020.5
20260905183024 27 134 0.0 1.6 0.00 0.00 0.00 72 1020.5
20260905182024 26 6 0.0 0.0 0.00 0.00 0.00 74 1020.7
20260905180024 26 67 0.0 1.6 0.00 0.00 0.00 73 1021.1
20260905175924 26 67 0.0 1.6 0.00 0.00 0.00 74 1021.1